When you browse on this site, cookies collect data to enhance your experience and personalize the content and advertising you see.
Visit our Privacy Policy to learn more. By continuing to use the site, you agree to this use of cookies and data.
  • In Austria
  • List of Countries
  • For 7 days
  • Water Temperature
  • Weather Map
  • News
  • Weather Widgets
  • user-avatar
    Login

    Hourly Weather Trinidad

    Today, 16 October, Wednesday

    Time Temperature Precipitation Wind Pressure Humidity
    00:00 +23°C° 0 mm 2 mps 745 mmHg 80%
    01:00 +23°C° 0 mm 2 mps 745 mmHg 78%
    02:00 +23°C° 0 mm 2 mps 745 mmHg 76%
    03:00 +21°C° 0 mm 2 mps 745 mmHg 76%
    04:00 +21°C° 0 mm 2 mps 745 mmHg 75%
    05:00 +21°C° 0 mm 2 mps 745 mmHg 75%
    06:00 +23°C° 0 mm 2 mps 746 mmHg 71%
    07:00 +23°C° 0 mm 2 mps 747 mmHg 67%
    08:00 +25°C° 0 mm 3 mps 747 mmHg 63%
    09:00 +27°C° 0 mm 2 mps 747 mmHg 58%
    10:00 +29°C° 0 mm 2 mps 747 mmHg 53%
    11:00 +31°C° 0 mm 2 mps 747 mmHg 48%
    12:00 +32°C° 0.1 mm 1 mps 746 mmHg 46%
    13:00 +34°C° 0.1 mm 1 mps 745 mmHg 44%
    14:00 +35°C° 0.1 mm 1 mps 744 mmHg 42%
    15:00 +35°C° 0 mm 1 mps 743 mmHg 44%
    16:00 +34°C° 0 mm 1 mps 742 mmHg 46%
    17:00 +33°C° 0 mm 1 mps 742 mmHg 48%
    18:00 +31°C° 0 mm 1 mps 742 mmHg 54%
    19:00 +29°C° 0 mm 1 mps 743 mmHg 59%
    20:00 +28°C° 0 mm 1 mps 743 mmHg 65%
    21:00 +27°C° 0 mm 1 mps 744 mmHg 68%
    22:00 +26°C° 0 mm 1 mps 744 mmHg 71%
    23:00 +26°C° 0 mm 1 mps 744 mmHg 74%

    Tomorrow, 17 October, Thursday

    Time Temperature Precipitation Wind Pressure Humidity
    00:00 +25°C° 0 mm 1 mps 744 mmHg 75%
    01:00 +23°C° 0 mm 0 mps 744 mmHg 76%
    02:00 +23°C° 0 mm 0 mps 744 mmHg 78%
    03:00 +22°C° 0 mm 0 mps 744 mmHg 78%
    04:00 +22°C° 0 mm 0 mps 743 mmHg 79%
    05:00 +22°C° 0 mm 0 mps 743 mmHg 79%
    06:00 +24°C° 0 mm 0 mps 744 mmHg 74%
    07:00 +25°C° 0 mm 0 mps 744 mmHg 69%
    08:00 +27°C° 0 mm 0 mps 745 mmHg 63%
    09:00 +30°C° 0.1 mm 0 mps 745 mmHg 56%
    10:00 +32°C° 0.1 mm 0 mps 745 mmHg 49%
    11:00 +37°C° 0.1 mm 1 mps 745 mmHg 42%
    12:00 +37°C° 0 mm 1 mps 744 mmHg 41%
    13:00 +37°C° 0 mm 1 mps 743 mmHg 40%
    14:00 +38°C° 0 mm 2 mps 742 mmHg 39%
    15:00 +38°C° 0 mm 2 mps 742 mmHg 41%
    16:00 +36°C° 0 mm 1 mps 741 mmHg 43%
    17:00 +36°C° 0 mm 1 mps 740 mmHg 45%
    18:00 +34°C° 0 mm 1 mps 741 mmHg 52%
    19:00 +32°C° 0 mm 1 mps 741 mmHg 58%
    20:00 +30°C° 0 mm 1 mps 741 mmHg 65%
    21:00 +29°C° 0.3 mm 1 mps 741 mmHg 69%
    22:00 +26°C° 0.3 mm 0 mps 742 mmHg 72%
    23:00 +26°C° 0.3 mm 0 mps 742 mmHg 76%

    Day after tomorrow, 18 October, Friday

    Time Temperature Precipitation Wind Pressure Humidity
    00:00 +25°C° 0.1 mm 0 mps 742 mmHg 79%
    01:00 +25°C° 0.1 mm 0 mps 742 mmHg 81%
    02:00 +24°C° 0.1 mm 0 mps 742 mmHg 83%
    03:00 +26°C° 0.1 mm 1 mps 742 mmHg 85%
    04:00 +26°C° 0.1 mm 1 mps 742 mmHg 86%
    05:00 +25°C° 0.1 mm 1 mps 742 mmHg 88%
    06:00 +27°C° 0.5 mm 1 mps 743 mmHg 85%
    07:00 +28°C° 0.5 mm 1 mps 744 mmHg 81%
    08:00 +29°C° 0.5 mm 1 mps 744 mmHg 78%
    09:00 +31°C° 0 mm 1 mps 744 mmHg 67%
    10:00 +34°C° 0 mm 1 mps 744 mmHg 56%
    11:00 +38°C° 0 mm 2 mps 745 mmHg 46%
    12:00 +37°C° 0.1 mm 2 mps 744 mmHg 46%
    13:00 +37°C° 0.1 mm 2 mps 743 mmHg 46%
    14:00 +36°C° 0.1 mm 3 mps 742 mmHg 47%
    15:00 +34°C° 1.4 mm 2 mps 741 mmHg 55%
    16:00 +31°C° 1.4 mm 2 mps 741 mmHg 64%
    17:00 +28°C° 1.4 mm 1 mps 740 mmHg 73%
    18:00 +27°C° 0.8 mm 1 mps 741 mmHg 78%
    19:00 +26°C° 0.8 mm 1 mps 742 mmHg 84%
    20:00 +25°C° 0.8 mm 1 mps 743 mmHg 89%
    21:00 +25°C° 0.1 mm 1 mps 743 mmHg 90%
    22:00 +25°C° 0.1 mm 1 mps 743 mmHg 92%
    23:00 +24°C° 0.1 mm 2 mps 744 mmHg 93%

    19 October, Saturday

    Time Temperature Precipitation Wind Pressure Humidity
    00:00 +24°C° 0 mm 1 mps 743 mmHg 94%
    01:00 +24°C° 0 mm 1 mps 743 mmHg 95%
    02:00 +22°C° 0 mm 0 mps 743 mmHg 96%
    03:00 +22°C° 0 mm 0 mps 743 mmHg 96%
    04:00 +24°C° 0 mm 1 mps 744 mmHg 96%
    05:00 +24°C° 0 mm 1 mps 744 mmHg 96%
    06:00 +25°C° 0.1 mm 1 mps 744 mmHg 94%
    07:00 +25°C° 0.1 mm 2 mps 745 mmHg 93%
    08:00 +26°C° 0.1 mm 2 mps 746 mmHg 91%
    09:00 +27°C° 0 mm 2 mps 746 mmHg 85%
    10:00 +28°C° 0 mm 2 mps 746 mmHg 80%
    11:00 +29°C° 0 mm 1 mps 746 mmHg 74%
    12:00 +31°C° 0 mm 1 mps 745 mmHg 67%
    13:00 +32°C° 0 mm 1 mps 744 mmHg 61%
    14:00 +35°C° 0 mm 2 mps 743 mmHg 54%
    15:00 +33°C° 0.3 mm 1 mps 742 mmHg 57%
    16:00 +32°C° 0.3 mm 1 mps 742 mmHg 60%
    17:00 +32°C° 0.3 mm 1 mps 742 mmHg 63%
    18:00 +30°C° 0.5 mm 1 mps 742 mmHg 70%
    19:00 +26°C° 0.5 mm 0 mps 742 mmHg 78%
    20:00 +25°C° 0.5 mm 0 mps 742 mmHg 85%
    21:00 +24°C° 0.4 mm 0 mps 742 mmHg 86%
    22:00 +24°C° 0.4 mm 0 mps 743 mmHg 86%
    23:00 +24°C° 0.4 mm 0 mps 743 mmHg 86%

    20 October, Sunday

    Time Temperature Precipitation Wind Pressure Humidity
    00:00 +23°C° 0 mm 0 mps 743 mmHg 88%
    01:00 +25°C° 0 mm 1 mps 742 mmHg 90%
    02:00 +25°C° 0 mm 1 mps 742 mmHg 92%
    03:00 +24°C° 0.1 mm 1 mps 742 mmHg 92%
    04:00 +22°C° 0.1 mm 0 mps 742 mmHg 93%
    05:00 +22°C° 0.1 mm 0 mps 742 mmHg 94%
    06:00 +23°C° 0.1 mm 0 mps 743 mmHg 90%
    07:00 +24°C° 0.1 mm 0 mps 744 mmHg 86%
    08:00 +25°C° 0.1 mm 0 mps 744 mmHg 82%
    09:00 +28°C° 0 mm 0 mps 744 mmHg 72%
    10:00 +31°C° 0 mm 0 mps 744 mmHg 62%
    11:00 +33°C° 0 mm 0 mps 744 mmHg 52%
    12:00 +35°C° 0 mm 1 mps 743 mmHg 50%
    13:00 +37°C° 0 mm 2 mps 742 mmHg 48%
    14:00 +37°C° 0 mm 2 mps 741 mmHg 46%
    15:00 +36°C° 0 mm 2 mps 741 mmHg 50%
    16:00 +34°C° 0 mm 1 mps 740 mmHg 54%
    17:00 +33°C° 0 mm 1 mps 740 mmHg 58%
    18:00 +32°C° 0.1 mm 1 mps 740 mmHg 64%
    19:00 +30°C° 0.1 mm 1 mps 740 mmHg 70%
    20:00 +28°C° 0.1 mm 1 mps 740 mmHg 77%
    21:00 +26°C° 0 mm 0 mps 741 mmHg 78%
    22:00 +26°C° 0 mm 0 mps 741 mmHg 80%
    23:00 +25°C° 0 mm 0 mps 741 mmHg 81%

    21 October, Monday

    Time Temperature Precipitation Wind Pressure Humidity
    00:00 +25°C° 0.2 mm 0 mps 741 mmHg 83%
    01:00 +25°C° 0.2 mm 0 mps 741 mmHg 85%
    02:00 +24°C° 0.2 mm 0 mps 741 mmHg 88%
    03:00 +24°C° 1.6 mm 0 mps 741 mmHg 90%
    04:00 +23°C° 1.6 mm 0 mps 741 mmHg 93%
    05:00 +23°C° 1.6 mm 0 mps 742 mmHg 95%
    06:00 +26°C° 1 mm 1 mps 742 mmHg 94%
    07:00 +26°C° 1 mm 2 mps 743 mmHg 92%
    08:00 +27°C° 1 mm 3 mps 744 mmHg 91%
    09:00 +27°C° 1.5 mm 3 mps 744 mmHg 90%
    10:00 +27°C° 1.5 mm 3 mps 744 mmHg 88%
    11:00 +27°C° 1.5 mm 4 mps 744 mmHg 87%
    12:00 +27°C° 0.1 mm 3 mps 744 mmHg 82%
    13:00 +28°C° 0.1 mm 3 mps 744 mmHg 78%
    14:00 +29°C° 0.1 mm 3 mps 743 mmHg 74%
    15:00 +28°C° 0 mm 3 mps 743 mmHg 74%
    16:00 +28°C° 0 mm 3 mps 742 mmHg 74%
    17:00 +28°C° 0 mm 3 mps 742 mmHg 74%
    18:00 +27°C° 0.1 mm 2 mps 743 mmHg 79%
    19:00 +26°C° 0.1 mm 2 mps 743 mmHg 85%
    20:00 +25°C° 0.1 mm 1 mps 744 mmHg 90%
    21:00 +24°C° 0 mm 1 mps 744 mmHg 85%
    22:00 +24°C° 0 mm 2 mps 744 mmHg 80%
    23:00 +24°C° 0 mm 2 mps 745 mmHg 74%
    Show more